Terminal Aerodrome Forecast
Issued by NWS Dallas/Fort Worth, TX

Home | Current Version | Previous Version | Text Only | Print | Product List | Glossary On
Versions: 1 2 3 4 5 6 7 8 9 10 11 12 13 14 15 16 17 18 19 20 21 22 23 24 25 26 27 28 29 30 31 32 33 34 35 36 37 38 39 40 41 42 43 44 45 46 47 48 49 50
000
FTUS44 KFWD 161505 AAA
TAFDFW
TAF AMD
KDFW 161505Z 1615/1718 16013KT P6SM SCT035 BKN150
     FM162100 17016KT P6SM VCTS BKN050CB
      TEMPO 1623/1702 5SM TSRA BKN035CB
     FM170400 12014KT P6SM BKN050
     FM171200 18010KT P6SM SCT025 BKN060=

USA.gov is the U.S. government's official web portal to all federal, state and local government web resources and services.